Voltar ao catálogo

STARLINK-38140

AtivoComunicaçõesSSO
NORAD 100182·PAYLOAD·🇺🇸 United States

Lançado Aug 1, 2026 de Vandenberg Space Force Base

Loading…

Próximas Passagens (próximas 24 horas)

TLE

AtualizadoSource: Space-Track

Época: Sep 14, 2026, 02:21 UTC

1 A0182U 26175D   26257.09855983  .00159342  00000-0  10504-2 0  9997
2 A0182  97.2828  99.1419 0001680 105.2699 254.8752 15.75167534  8161

Acompanhe STARLINK-38140 em tempo real com AllMySat

Download on the App Store